Seattle, WA
on Sunday, February 24, 2013

Sunday
Previous Day Next Day
Daily Summary
 ActualAverageRecord
Temperature
Mean Temperature °F 44°F  
Max Temperature 48°F 51°F 62°F (1949)
Min Temperature 41°F 37°F 24°F (2011)
Degree Days
Heating Degree Days 20 21  
Month to date heating degree days 490 522  
Since 1 July heating degree days 3064 3171  
Cooling Degree Days 0 0  
Month to date cooling degree days 0 0  
Year to date cooling degree days 0 0  
Moisture
Dew Point 34°F   
Average Humidity 68    
Maximum Humidity 79    
Minimum Humidity 56    
Precipitation
Precipitation T in 0.12 in 1.55 in (1961)
Month to date precipitation 0.97 3.00  
Year to date precipitation 5.13 8.57  
Snow
Snow 0.00 in in 0.70 in (1994)
Month to date snowfall 0.0  
Since 1 July snowfall 0.6  
Snow Depth 0.00 in   
Wind
Wind Speed 12 mph   
Max Wind Speed 26 mph   
Max Gust Speed 35 mph   
Visibility 10 miles   
Events Rain   

Key: T is trace of precipitation, MM is missing value
Source: NWS Daily Summary
Time(PST)TemperatureDew PointHumidity Pressure Visibility Wind DirectionWind SpeedGust SpeedPrecipitationEvents Conditions
12:53 AM 41.0°F 34.0°F 76% 30.40 in 10.0 miles South 10.4 mph - N/A   Overcast
1:53 AM 41.0°F 35.1°F 79% 30.40 in 10.0 miles South 9.2 mph - N/A   Overcast
2:18 AM 41.0°F 35.6°F 81% 30.37 in 10.0 miles South 9.2 mph - N/A   Mostly Cloudy
2:53 AM 41.0°F 35.1°F 79% 30.40 in 10.0 miles South 9.2 mph - N/A   Overcast
3:53 AM 41.0°F 35.1°F 79% 30.40 in 10.0 miles South 12.7 mph - N/A   Overcast
4:53 AM 42.1°F 34.0°F 73% 30.39 in 10.0 miles South 11.5 mph - N/A   Overcast
5:53 AM 42.1°F 33.1°F 70% 30.38 in 10.0 miles South 13.8 mph - N/A   Overcast
6:53 AM 42.1°F 33.1°F 70% 30.37 in 10.0 miles South 12.7 mph - N/A   Overcast
7:53 AM 43.0°F 33.1°F 68% 30.38 in 10.0 miles SSW 12.7 mph - N/A   Overcast
8:53 AM 44.1°F 33.1°F 65% 30.37 in 10.0 miles South 10.4 mph - N/A   Mostly Cloudy
9:53 AM 46.0°F 34.0°F 63% 30.36 in 10.0 miles South 13.8 mph - N/A   Mostly Cloudy
10:53 AM 46.9°F 34.0°F 61% 30.35 in 10.0 miles SSW 12.7 mph 19.6 mph N/A   Overcast
11:53 AM 46.9°F 35.1°F 63% 30.33 in 10.0 miles SSW 15.0 mph 21.9 mph N/A   Overcast
12:53 PM 46.9°F 34.0°F 61% 30.31 in 10.0 miles South 11.5 mph - N/A   Overcast
1:53 PM 46.9°F 34.0°F 61% 30.29 in 10.0 miles SSW 15.0 mph - 0.00 in   Overcast
2:53 PM 48.0°F 34.0°F 58% 30.26 in 10.0 miles SSW 13.8 mph - N/A   Overcast
3:53 PM 48.0°F 34.0°F 58% 30.23 in 10.0 miles SSW 10.4 mph - N/A   Overcast
4:53 PM 46.9°F 36.0°F 66% 30.20 in 10.0 miles SSW 15.0 mph 19.6 mph N/A   Overcast
5:53 PM 46.9°F 34.0°F 61% 30.17 in 10.0 miles South 13.8 mph - N/A   Overcast
6:53 PM 46.9°F 33.1°F 59% 30.14 in 10.0 miles South 9.2 mph - N/A   Overcast
7:53 PM 46.9°F 32.0°F 56% 30.11 in 10.0 miles South 8.1 mph - N/A   Overcast
8:53 PM 46.9°F 32.0°F 56% 30.08 in 10.0 miles South 11.5 mph - N/A   Overcast
9:53 PM 46.9°F 32.0°F 56% 30.05 in 10.0 miles South 10.4 mph - 0.00 in   Light Drizzle
10:53 PM 46.9°F 30.9°F 54% 30.01 in 10.0 miles SSE 13.8 mph - 0.00 in   Overcast
11:53 PM 45.0°F 35.1°F 68% 29.98 in 9.0 miles South 18.4 mph 34.5 mph 0.00 in Rain Light Rain
Moon Phase
Feb. 24 Feb. 25 Mar. 04 Mar. 11 Mar. 19
Sunrise:06:58 AM (PST) Moon Rise:05:04 PM (PST)2/24
Sunset:05:47 PM (PST) Moon Set:05:59 AM (PST)2/24

Copyright © 2014 The Weather Underground, Inc.